Flag for Austria Weather past 2 weeks in Saalfelden am Steinernen Meer, Salzburg, Austria

Now
64 °F

Fog.


Feels Like: 64 °F
Forecast: 58 / 73 °F
Wind: 3 mph from South

Location: Salzburg-Flughafen

Current Time: Jul 28, 2014 at 7:39:42 AM

Latest Report: Jul 28, 2014 at 6:50 AM


Visibility: 2 mi

Pressure: 29.98 "Hg

Humidity: 94%

Dew point: 63 °F

Location of Saalfelden am Steinernen MeerLocation

Historic Weather in Saalfelden am Steinernen Meer — Graph

°F

Saalfelden am Steinernen Meer temperature yesterday

Maximum temperature yesterday: 73 °F (at 1:20 PM)
Minimum temperature yesterday: 61 °F (at 2:20 AM)
Average temperature yesterday: 68 °F

Past Weeks' High & Low Weather Summary

 TemperatureHumidityPressure
High91 °F (Jul 19, 5:50 PM)100% (Jul 15, 5:50 AM)30.21 "Hg (Jul 15, 5:50 AM)
Low57 °F (Jul 13, 6:20 AM)26% (Jul 19, 5:20 PM)29.80 "Hg (Jul 26, 4:20 PM)
Average69 °F72%29.99 "Hg
* Reported Jul 13 6:20 AM — Jul 28 6:20 AM, Saalfelden am Steinernen Meer, Weather by CustomWeather, © 2014

Note: Actual official high and low records may vary slightly from our data, if they occured in-between our weather recording intervals... More about our weather records

Advertising

Saalfelden am Steinernen Meer weather history for previous 24 hours

 ConditionsComfort  
Time TempWeatherWind HumidityBarometerVisibility
6:20 AM
Jul 28
64 °FFog.1 mph94%29.98 "Hg3 mi
5:50 AM63 °FFog.1 mph100%29.98 "Hg2 mi
5:20 AM64 °FFog.2 mph94%29.98 "Hg3 mi
4:50 AM64 °FPartly cloudy.2 mph94%29.98 "Hg4 mi
4:20 AM64 °FPartly cloudy.2 mph94%29.98 "Hg4 mi
3:50 AM64 °FPartly cloudy.3 mph94%29.98 "Hg6 mi
3:20 AM64 °FPassing clouds.5 mph94%29.98 "Hg6 mi
2:50 AM64 °FPassing clouds.2 mph100%29.98 "Hg4 mi
2:20 AM64 °FPassing clouds.1 mph100%29.98 "Hg5 mi
1:50 AM64 °FPartly cloudy.3 mph100%30.01 "Hg5 mi
1:20 AM66 °FPassing clouds.1 mph94%30.01 "HgN/A
12:50 AM64 °FPassing clouds.3 mph94%30.01 "HgN/A
12:20 AM66 °FLight rain. Passing clouds.5 mph94%30.01 "HgN/A
11:50 PM
Jul 27
66 °FSprinkles. Passing clouds.3 mph88%30.01 "HgN/A
11:20 PM68 °FSprinkles. Passing clouds.5 mph78%30.01 "HgN/A
10:50 PM68 °FSprinkles. Passing clouds.3 mph78%30.01 "HgN/A
10:20 PM70 °FPassing clouds.5 mph73%30.01 "HgN/A
9:50 PM70 °FPartly cloudy.5 mph73%30.01 "HgN/A
9:20 PM70 °FBroken clouds.8 mph73%30.01 "HgN/A
8:50 PM70 °FSprinkles. Broken clouds.9 mph73%29.98 "HgN/A
8:20 PM72 °FBroken clouds.12 mph65%29.98 "HgN/A
7:50 PM72 °FBroken clouds.9 mph65%29.98 "HgN/A
7:20 PM72 °FBroken clouds.10 mph69%29.98 "HgN/A
6:50 PM72 °FBroken clouds.10 mph69%29.98 "HgN/A
6:20 PM73 °FBroken clouds.9 mph61%29.95 "HgN/A
5:50 PM73 °FBroken clouds.12 mph61%29.95 "HgN/A
5:20 PM73 °FBroken clouds.9 mph65%29.98 "HgN/A
4:50 PM73 °FScattered clouds.10 mph65%29.98 "HgN/A
4:20 PM73 °FScattered clouds.12 mph65%29.98 "HgN/A
3:50 PM73 °FScattered clouds.13 mph65%29.98 "HgN/A
3:20 PM73 °FPartly sunny.10 mph69%29.98 "HgN/A
2:50 PM73 °FPartly sunny.12 mph65%29.98 "HgN/A
2:20 PM73 °FPartly sunny.10 mph61%29.98 "HgN/A
1:50 PM73 °FScattered clouds.9 mph65%29.98 "HgN/A
1:20 PM73 °FScattered clouds.10 mph65%30.01 "HgN/A
12:50 PM72 °FScattered clouds.12 mph69%30.01 "HgN/A
12:20 PM72 °FScattered clouds.10 mph69%30.01 "HgN/A
11:50 AM70 °FScattered clouds.10 mph69%30.01 "HgN/A
11:20 AM70 °FBroken clouds.10 mph73%30.01 "HgN/A
10:50 AM70 °FBroken clouds.9 mph73%30.01 "HgN/A
10:20 AM68 °FBroken clouds.5 mph78%30.01 "HgN/A
9:50 AM68 °FBroken clouds.2 mph78%30.01 "HgN/A
9:20 AM66 °FPartly sunny.2 mph83%29.98 "HgN/A
8:50 AM66 °FPartly sunny.3 mph83%30.01 "HgN/A
8:20 AM66 °FPartly sunny.2 mph83%29.98 "HgN/A
7:50 AM64 °FPartly sunny.1 mph94%29.98 "HgN/A
7:20 AM64 °FPartly sunny.2 mph94%29.98 "HgN/A
Weather by CustomWeather, © 2014

See weather overviewHow to use our weather pages